Home > Weather > Quito > Past weeks

Flag for Ecuador Weather for the Past 2 Weeks in Quito, Ecuador

Now
59 °F

Scattered clouds.


Feels Like: 55 °F
Forecast: N/A
Wind: 23 mph from South

Location: Latacunga Airport

Current Time: Feb 11, 2016 at 6:35:37 PM

Latest Report: Feb 11, 2016 at 6:00 PM


Visibility: N/A

Pressure: 30.36 "Hg (21.71 "Hg at 2826m altitude)

Humidity: 82%

Dew point: 54 °F

Location of QuitoLocation

Historic Weather in Quito — Graph

°F

Quito Temperature Yesterday

Maximum temperature yesterday: 66 °F (at 4:00 PM)
Minimum temperature yesterday: 52 °F (at 12:00 AM)
Average temperature yesterday: 57 °F

High & Low Weather Summary for the Past Weeks

 TemperatureHumidityPressure
High75 °F (Jan 27, 4:00 PM)100% (Jan 27, 11:00 PM)30.51 "Hg (Jan 27, 11:00 PM)
Low37 °F (Jan 28, 6:00 AM)25% (Jan 28, 1:00 PM)29.59 "Hg (Feb 10, 7:00 PM)
Average57 °F84%30.40 "Hg
* Reported Jan 27 4:00 PM — Feb 11 4:00 PM, Quito, Weather by CustomWeather, © 2016

Note: Actual official high and low records may vary slightly from our data, if they occured in-between our weather recording intervals... More about our weather records

Advertising

Quito Weather History for the Previous 24 Hours

 ConditionsComfort  
Time TempWeatherWind HumidityBarometerVisibility
4:00 PM
Thu, Feb 11
63 °FPartly sunny.21 mph73%30.36 "HgN/A
3:00 PM66 °FPartly sunny.17 mph64%30.36 "HgN/A
2:00 PM63 °FPartly sunny.24 mph73%30.36 "HgN/A
1:00 PM66 °FPartly sunny.22 mph64%30.39 "HgN/A
12:00 PM64 °FPartly sunny.17 mph73%30.42 "HgN/A
11:00 AM61 °FPartly sunny.20 mph77%30.45 "HgN/A
10:00 AM59 °FPartly sunny.18 mph88%30.48 "HgN/A
9:00 AM57 °FPartly sunny.17 mph94%30.48 "HgN/A
8:00 AM54 °FPartly sunny.18 mph100%30.45 "HgN/A
7:00 AM52 °FBroken clouds.10 mph100%30.42 "Hg4 mi
6:00 AM52 °FPartly cloudy.6 mph100%30.42 "HgN/A
5:00 AM52 °FPartly cloudy.3 mph100%30.42 "HgN/A
4:00 AM52 °FPassing clouds.3 mph100%30.42 "HgN/A
3:00 AM52 °FPassing clouds.5 mph100%30.42 "HgN/A
2:00 AM52 °FPassing clouds.3 mph100%30.42 "HgN/A
1:00 AM52 °FLight rain. Passing clouds.2 mph100%30.45 "HgN/A
12:00 AM52 °FLight rain. Passing clouds.5 mph100%30.48 "HgN/A
11:00 PM
Wed, Feb 10
54 °FPassing clouds.3 mph100%30.48 "HgN/A
10:00 PM55 °FPassing clouds.8 mph94%30.48 "HgN/A
9:00 PM55 °FPassing clouds.9 mph94%30.45 "HgN/A
8:00 PM55 °FPassing clouds.14 mph94%30.45 "HgN/A
7:00 PM55 °FPassing clouds.13 mph94%29.59 "HgN/A
6:00 PM59 °FPartly sunny.16 mph77%30.39 "HgN/A
Weather by CustomWeather, © 2016

See weather overviewHow to use our weather pages